Location: Tucson
(32.2217°N, 110.9265°W)
Time: 02:00:41
(UTC-07:00)

Tiros 1 - Pass Details

Date: 27 October 2021
Orbit: 630 x 663 km, 48.4° (Epoch: 07 December)

Event Time Altitude Azimuth Distance (km) Brightness Sun altitude
Rises 07:59:18 0° 222° (SW) 2,978 10.4 15.4°
Reaches altitude 10° 08:01:39 10° 219° (SW) 2,068 9.7 15.9°
Maximum altitude 08:06:24 67° 137° (SE) 713 8.1 16.8°
Drops below altitude 10° 08:11:08 10° 55° (NE) 2,068 10.2 17.7°
Sets 08:13:30 0° 53° (NE) 2,978 10.9 18.1°
